Wetbulb
76.06 74.88 73.21 70.40 57.92 54.11 50.97 53.68 58.80 58.30 59.70 63.82 65.06 62.88 60.95 62.01 58.69 53.39 67.96 70.90 72.63 72.33 73.64 75.18 77.49 76.55 76.34 76.58 76.40 76.33 76.48 77.27 77.97 78.43 78.44 77.91 77.87 77.98 77.52 77.27 77.51 77.23 76.86 76.59 76.58 76.60 76.39 75.93 75.22
73.99 72.82 71.47 65.21 52.18 47.99 49.44 56.65 56.08 59.58 63.12 65.18 65.00 64.09 62.63 60.20 66.11 66.99 67.97 73.08 73.86 73.69 73.80 74.61 77.22 77.20 76.84 76.89 77.52 77.20 77.05 77.62 78.22 78.46 78.74 78.23 78.26 77.71 77.61 77.50 77.00 76.78 76.62 76.37 76.27 75.91 75.39 75.14 74.89
73.26 71.60 64.71 60.10 49.59 47.82 49.95 56.67 59.10 63.18 65.46 64.96 63.49 66.01 64.25 62.71 67.36 67.88 71.13 73.83 74.58 74.08 74.75 75.40 77.32 77.54 77.55 77.82 77.67 78.57 78.41 78.27 78.23 78.47 78.22 78.36 78.32 77.85 77.32 76.88 76.73 76.59 76.29 76.05 75.50 75.39 75.22 74.81 74.78
69.03 65.93 62.17 51.42 47.35 53.48 55.61 58.29 62.43 63.08 65.04 65.75 65.04 62.52 66.82 69.03 68.16 70.29 73.27 74.23 73.91 74.34 74.99 77.20 77.75 77.74 77.84 77.86 78.42 78.06 78.13 78.75 78.70 78.93 78.06 78.12 77.58 77.10 76.89 76.36 76.44 76.02 75.64 75.20 74.95 74.89 74.95 75.06 75.11
66.07 59.60 50.79 48.84 51.11 58.09 59.95 61.34 62.49 61.21 63.83 64.23 65.21 62.38 63.90 69.06 71.19 72.15 73.09 73.76 73.80 74.68 75.63 76.21 78.39 78.30 77.92 77.98 78.18 78.73 78.68 78.57 78.73 78.69 77.91 77.77 77.51 77.08 76.88 76.66 76.19 75.83 75.44 75.25 75.09 75.36 75.42 75.53 75.33
57.39 56.02 48.81 46.78 51.39 58.78 60.23 61.41 62.20 63.57 64.40 64.38 63.58 63.15 64.62 69.76 69.94 71.76 73.07 72.96 75.24 75.12 75.83 76.06 77.95 78.12 78.15 78.44 78.34 78.55 78.67 78.56 78.73 78.16 77.72 77.63 77.56 77.24 76.85 76.47 75.67 75.22 75.05 75.22 75.39 75.75 76.00 75.98 76.04
58.02 53.09 50.79 50.33 54.29 57.20 59.43 63.62 62.90 62.84 63.25 63.40 65.88 61.41 66.23 67.84 70.82 72.15 72.56 73.81 75.37 76.10 75.62 76.12 76.41 77.41 78.45 79.00 78.60 78.55 78.32 77.78 77.91 77.25 77.82 77.78 77.44 77.26 76.96 76.69 76.22 75.64 75.58 75.80 76.22 76.11 76.37 76.25 76.33
58.66 54.21 52.61 51.62 53.65 54.63 60.70 63.04 65.06 63.05 63.47 67.80 67.14 61.33 62.30 67.95 71.66 72.08 72.70 73.50 74.90 75.51 75.70 75.54 75.78 76.17 76.00 76.42 77.58 77.69 77.84 77.52 77.49 77.75 77.54 77.56 77.45 77.05 76.75 76.13 76.31 76.47 76.53 76.95 76.78 75.85 75.49 75.96 74.89
62.26 53.34 49.81 51.78 53.52 55.41 61.17 62.53 65.93 67.85 65.11 66.19 66.96 65.60 67.86 70.92 71.83 71.18 71.39 72.88 73.46 74.39 75.13 75.48 75.49 74.86 75.79 76.20 76.82 77.29 77.68 77.38 77.28 76.84 77.45 77.36 75.16 75.24 75.86 74.12 75.45 76.04 75.97 76.10 76.69 75.69 75.83 76.10 75.33
57.05 52.02 53.32 57.01 57.18 58.89 61.03 63.67 64.39 63.69 63.49 63.97 65.03 68.33 70.28 70.94 70.42 69.59 69.31 69.44 71.13 72.14 74.14 74.88 75.25 75.40 75.73 77.42 76.20 75.31 75.44 75.74 75.62 75.86 75.36 75.55 74.24 73.90 71.50 74.34 74.49 74.48 74.39 75.94 76.06 75.27 75.81 74.61 73.22
57.10 54.05 57.44 58.60 59.04 62.79 60.85 63.23 63.85 62.27 60.39 63.70 63.19 66.38 69.13 69.72 69.48 69.53 69.42 69.48 70.45 72.36 73.78 74.39 74.72 75.19 75.47 76.01 75.67 75.05 75.06 74.69 74.93 75.10 75.03 74.82 73.14 72.75 73.42 71.58 72.12 73.07 74.02 73.56 73.89 73.22 72.84 72.79 72.32
53.50 58.14 59.17 59.07 61.62 61.68 60.44 62.03 62.53 62.47 62.47 66.43 66.49 68.06 69.08 68.75 68.93 69.11 69.19 70.18 70.50 71.85 73.34 74.21 74.48 74.80 74.98 74.66 75.05 74.21 74.58 74.56 74.07 74.19 74.42 73.79 71.88 71.69 71.46 71.62 72.45 72.56 72.73 72.13 71.98 71.94 72.22 72.15 72.19
51.69 53.39 58.93 60.97 59.27 60.69 62.21 61.27 62.26 61.97 65.39 67.64 67.56 68.35 68.01 68.32 69.17 70.02 70.55 71.33 71.17 71.25 72.58 73.37 74.21 74.36 74.89 74.13 74.52 74.24 73.76 74.41 74.37 74.10 74.03 73.70 71.79 70.34 70.92 72.13 72.44 72.28 72.34 71.97 71.82 71.94 71.43 71.00 71.23
53.39 57.87 58.81 58.68 58.48 59.06 60.13 61.08 62.26 63.33 67.13 66.96 66.68 66.80 67.62 68.08 69.13 69.68 70.38 70.42 70.90 71.79 72.30 73.37 74.01 74.51 74.58 73.80 74.02 74.00 73.84 74.08 74.01 73.70 74.05 74.04 72.09 71.40 71.24 71.55 71.47 71.31 71.90 71.39 72.08 71.37 70.59 69.75 69.81
58.74 55.29 57.51 57.56 58.07 60.18 62.27 58.30 59.25 64.37 66.43 66.10 66.63 67.28 67.77 68.72 69.98 69.49 70.67 70.64 71.19 72.00 72.58 73.01 73.73 74.81 73.87 73.73 72.80 72.87 73.84 73.85 73.29 73.41 73.68 72.81 72.59 71.59 71.51 71.18 71.13 71.34 70.69 70.83 70.59 70.11 69.02 68.76 68.97
53.69 53.90 50.95 56.26 58.54 60.78 58.31 52.46 61.30 64.45 64.52 64.87 66.46 67.19 67.70 68.47 69.59 70.49 71.20 71.09 71.71 71.87 71.75 72.79 74.54 74.45 73.56 73.48 72.77 72.85 73.07 72.91 72.82 73.23 73.03 72.99 73.71 73.04 71.91 70.75 70.23 70.89 70.94 70.13 69.89 68.81 68.21 68.33 67.95
49.98 48.55 49.24 53.49 58.37 58.98 56.77 53.62 61.38 63.93 63.57 63.99 65.67 66.39 67.12 67.71 68.67 70.02 70.58 71.08 71.30 71.44 71.82 72.14 73.74 73.98 73.65 72.39 72.78 73.33 73.35 72.67 72.72 73.08 72.70 72.53 73.11 73.12 72.16 70.32 70.43 71.00 70.61 70.05 69.14 68.41 68.04 67.77 67.62
47.58 49.42 48.49 52.04 55.98 57.45 55.10 54.27 60.98 62.33 62.30 62.79 64.00 64.54 65.82 66.27 67.12 68.99 69.16 70.52 71.07 71.16 72.00 72.57 73.51 73.58 72.88 73.40 72.80 72.39 72.75 72.69 72.81 72.93 72.13 72.48 72.61 72.74 71.85 71.11 70.95 71.10 70.19 69.30 68.63 68.34 68.27 67.71 67.39
50.91 51.19 52.42 53.76 56.46 54.61 53.97 54.87 59.76 61.62 61.50 61.52 61.98 62.74 64.16 64.94 67.04 68.09 68.76 69.79 69.56 69.91 71.10 71.79 72.28 73.00 73.01 72.15 71.66 71.66 71.36 71.99 71.99 72.12 72.61 72.32 72.01 72.52 71.86 71.38 70.62 70.41 69.82 69.51 69.07 68.38 67.71 67.53 67.48
51.69 48.61 50.22 51.64 55.84 55.28 53.90 54.51 59.61 61.26 61.23 61.61 61.85 62.25 63.04 64.34 64.30 65.72 67.19 68.80 68.06 68.50 70.47 71.12 72.04 72.43 73.06 72.06 71.88 72.09 71.69 71.60 72.02 72.22 72.41 72.61 72.33 72.28 71.37 71.06 70.37 70.46 69.57 68.41 67.70 67.68 66.86 66.86 67.93
45.68 45.51 45.64 51.11 54.83 55.51 54.99 52.26 54.73 60.13 61.38 62.16 62.69 63.35 63.83 63.82 63.86 64.65 65.66 67.38 68.35 67.75 69.22 70.46 71.04 72.10 72.78 72.47 71.61 71.66 71.81 71.45 70.93 71.47 72.12 72.56 72.05 72.18 71.70 71.03 70.64 69.31 68.01 67.50 67.32 66.87 66.52 65.76 66.81
43.09 48.91 49.42 51.48 51.45 45.90 53.12 43.44 51.08 55.99 58.06 59.58 60.92 61.81 62.83 63.73 65.02 65.16 65.14 65.84 67.38 68.00 69.33 70.21 70.68 71.11 71.77 72.23 71.44 71.03 70.10 69.40 69.62 69.46 71.22 71.30 71.40 70.92 70.02 69.19 68.46 67.46 67.50 67.08 67.26 68.10 67.59 66.43 64.95
47.70 50.00 49.37 51.10 48.60 47.68 49.40 45.00 48.00 55.41 54.07 57.12 59.82 61.26 62.67 63.71 64.52 64.76 65.47 66.49 67.34 68.59 68.86 69.74 69.89 70.07 71.55 72.02 72.07 71.00 69.49 69.37 65.61 66.63 68.74 68.63 67.66 67.06 67.86 67.48 67.16 67.70 66.96 66.76 67.14 67.19 66.92 66.54 65.71
50.54 46.23 44.88 43.78 44.29 40.03 46.83 47.62 44.85 50.90 55.70 58.11 60.44 62.19 63.43 64.06 64.79 65.49 66.28 67.07 67.35 68.61 69.24 69.74 69.67 70.15 71.47 71.65 71.57 70.91 69.73 66.10 64.55 65.08 66.63 65.30 64.39 64.56 65.99 66.80 67.79 67.34 66.30 66.23 66.48 66.49 66.36 66.23 66.18
45.64 42.10 36.59 36.09 37.71 38.17 44.06 45.76 49.84 52.90 58.18 59.59 59.88 61.66 63.73 64.98 65.20 65.02 65.06 66.01 66.98 67.74 68.77 69.76 69.72 69.76 71.36 71.81 71.57 71.32 69.90 65.63 64.72 64.89 65.16 62.60 62.24 64.08 65.30 66.50 65.61 65.16 64.94 65.36 65.74 66.07 65.61 65.34 65.41
43.86 43.20 37.48 33.14 34.20 40.11 45.11 43.83 50.09 57.07 57.67 60.03 60.56 62.41 63.32 64.50 65.50 65.77 65.69 66.35 66.98 68.21 68.93 69.84 69.88 69.87 71.39 72.07 71.77 71.42 68.96 65.16 64.83 64.68 63.51 62.85 63.22 64.54 65.39 64.70 64.94 63.17 63.83 65.10 66.15 65.27 65.17 65.08 65.50
42.69 40.26 43.52 37.55 34.35 36.48 39.71 43.91 50.01 52.76 53.83 56.99 58.98 60.42 61.21 63.69 65.07 66.08 66.59 66.86 67.27 68.11 68.89 69.91 70.33 70.69 70.97 71.34 71.14 68.47 66.50 63.75 63.66 64.01 63.62 63.11 63.38 63.84 64.30 64.03 63.99 63.35 63.66 65.75 65.68 64.95 64.96 65.07 65.19
46.19 45.93 40.79 36.80 33.27 32.45 37.79 39.72 43.27 48.08 51.89 53.66 56.36 58.46 60.61 62.80 64.77 65.88 66.99 67.32 67.88 68.58 69.54 70.24 71.01 70.83 71.08 70.67 69.40 67.74 65.20 63.42 62.87 63.14 63.06 61.95 62.07 63.31 63.81 63.86 63.41 63.74 63.76 65.00 64.88 64.17 64.49 64.70 64.40
42.87 40.86 39.47 39.60 37.13 34.67 33.96 38.13 46.09 49.18 52.04 53.82 55.79 59.06 59.85 61.26 63.65 64.85 67.08 68.30 68.58 69.03 69.42 70.13 70.81 71.16 70.86 69.63 68.06 65.93 63.59 63.38 63.19 63.35 63.68 62.55 62.07 62.66 63.25 63.27 63.22 63.70 63.79 64.45 63.82 63.86 64.26 64.21 64.43
46.74 43.48 42.45 40.83 35.83 35.77 36.90 39.42 49.37 51.20 52.01 55.12 56.13 58.77 57.81 60.89 63.37 64.46 66.70 67.90 68.12 68.47 69.11 69.94 70.74 71.18 71.68 70.34 67.10 64.96 63.86 63.79 63.59 63.49 63.66 63.33 62.74 62.63 63.05 63.38 63.73 64.19 64.41 64.28 63.51 63.73 64.90 64.39 64.04
MSLP
1007.34 1007.33 1007.23 1007.28 1008.47 1009.13 1009.78 1010.12 1010.08 1010.42 1010.46 1010.58 1010.62 1011.10 1012.04 1012.85 1013.26 1014.59 1014.50 1014.62 1014.70 1015.05 1014.95 1014.79 1015.00 1015.23 1015.56 1015.77 1015.99 1016.34 1016.58 1016.70 1016.89 1017.09 1017.30 1017.52 1017.48 1017.60 1017.79 1018.00 1018.02 1018.03 1018.15 1018.34 1018.30 1018.28 1018.43 1018.50 1018.56
1007.58 1007.74 1007.72 1008.10 1009.12 1009.78 1009.91 1009.90 1010.20 1010.26 1010.47 1010.61 1010.90 1011.62 1012.25 1013.31 1013.58 1014.14 1014.51 1014.62 1014.53 1014.82 1015.11 1015.16 1015.20 1015.58 1015.74 1016.00 1016.09 1016.22 1016.59 1016.75 1017.04 1017.33 1017.54 1017.76 1017.80 1017.85 1018.01 1018.27 1018.26 1018.34 1018.41 1018.47 1018.43 1018.61 1018.78 1018.84 1018.82
1007.55 1007.59 1008.26 1008.95 1009.67 1010.14 1009.99 1009.99 1009.98 1010.25 1010.52 1010.51 1011.27 1011.71 1012.54 1013.67 1013.92 1014.12 1014.28 1014.58 1014.77 1015.08 1015.19 1015.37 1015.50 1015.74 1015.92 1016.12 1016.22 1016.47 1016.75 1017.05 1017.36 1017.66 1017.81 1017.97 1018.11 1018.26 1018.30 1018.41 1018.44 1018.54 1018.54 1018.50 1018.63 1018.78 1018.96 1019.01 1019.03
1007.80 1008.14 1008.70 1008.97 1009.67 1009.41 1009.35 1009.68 1009.95 1010.35 1010.72 1010.93 1011.37 1012.36 1012.89 1013.19 1013.75 1013.92 1014.47 1014.57 1015.04 1015.20 1015.33 1015.37 1015.67 1015.90 1016.07 1016.38 1016.63 1016.84 1017.09 1017.40 1017.66 1017.90 1018.17 1018.27 1018.46 1018.48 1018.55 1018.65 1018.71 1018.79 1018.70 1018.74 1018.90 1018.98 1019.12 1019.09 1019.13
1008.26 1008.80 1009.17 1009.29 1009.59 1009.28 1009.20 1009.53 1009.86 1010.30 1010.89 1011.42 1011.61 1012.98 1013.52 1013.88 1013.81 1014.25 1014.64 1015.00 1015.21 1015.40 1015.45 1015.60 1015.84 1016.02 1016.32 1016.75 1017.00 1017.15 1017.41 1017.67 1017.93 1018.24 1018.31 1018.47 1018.54 1018.65 1018.76 1018.77 1018.87 1018.89 1018.93 1018.99 1019.06 1019.08 1019.04 1019.14 1019.08
1008.72 1009.30 1009.51 1009.77 1009.76 1009.37 1009.35 1009.61 1010.19 1010.56 1011.09 1011.75 1012.28 1012.89 1014.04 1014.10 1014.21 1014.59 1014.93 1015.19 1015.24 1015.63 1015.72 1015.81 1016.00 1016.31 1016.57 1016.78 1017.06 1017.30 1017.57 1017.81 1018.08 1018.30 1018.51 1018.59 1018.65 1018.71 1018.78 1018.86 1018.98 1018.95 1018.97 1019.09 1019.10 1019.09 1019.09 1019.14 1019.04
1008.46 1009.18 1009.68 1009.79 1009.91 1009.67 1009.59 1009.70 1010.26 1010.94 1011.18 1011.60 1012.02 1012.99 1014.11 1014.29 1014.33 1014.70 1015.14 1015.39 1015.45 1015.70 1015.94 1016.03 1016.21 1016.34 1016.58 1016.88 1017.16 1017.38 1017.63 1017.94 1018.21 1018.34 1018.52 1018.62 1018.61 1018.78 1018.85 1018.97 1018.98 1018.99 1018.97 1019.07 1019.01 1019.01 1019.07 1019.13 1018.92
1007.91 1008.72 1009.12 1009.24 1009.63 1009.66 1009.44 1009.70 1010.15 1010.72 1011.29 1011.50 1011.94 1012.77 1013.62 1013.89 1014.27 1014.80 1015.34 1015.66 1015.88 1015.99 1016.05 1016.23 1016.45 1016.52 1016.91 1017.08 1017.34 1017.53 1017.86 1018.19 1018.29 1018.47 1018.57 1018.65 1018.73 1018.83 1018.94 1019.10 1018.99 1019.01 1018.95 1018.93 1018.98 1018.91 1018.90 1019.02 1018.81
1007.24 1008.13 1008.55 1008.62 1008.78 1008.94 1009.22 1009.86 1010.25 1010.41 1011.13 1011.37 1011.60 1011.92 1012.33 1013.47 1014.27 1015.03 1015.58 1015.97 1016.12 1016.27 1016.43 1016.45 1016.68 1016.85 1017.03 1017.37 1017.53 1017.73 1017.98 1018.22 1018.45 1018.51 1018.58 1018.74 1018.97 1019.02 1019.07 1019.21 1019.10 1019.05 1019.01 1019.04 1018.91 1018.96 1018.94 1018.95 1018.98
1006.88 1007.33 1007.04 1006.91 1007.35 1007.72 1008.64 1009.42 1009.96 1010.61 1011.05 1011.36 1011.72 1012.12 1012.78 1013.65 1014.38 1015.00 1015.50 1015.85 1016.15 1016.39 1016.52 1016.58 1016.65 1016.98 1017.22 1017.29 1017.57 1017.87 1018.06 1018.26 1018.41 1018.52 1018.64 1018.78 1019.01 1019.16 1019.13 1019.09 1018.99 1018.99 1019.06 1018.89 1018.92 1018.99 1019.02 1019.09 1019.23
1006.11 1005.94 1005.86 1006.19 1006.40 1006.94 1008.22 1009.29 1009.73 1010.37 1011.01 1010.80 1011.26 1012.03 1012.86 1013.77 1014.50 1015.01 1015.40 1015.56 1015.81 1016.18 1016.46 1016.61 1016.74 1017.04 1017.30 1017.49 1017.71 1017.91 1018.08 1018.27 1018.39 1018.58 1018.75 1018.95 1019.17 1019.26 1019.24 1019.34 1019.24 1019.20 1018.99 1019.19 1019.18 1019.29 1019.31 1019.35 1019.30
1005.46 1004.77 1005.39 1005.66 1006.18 1006.92 1007.81 1008.91 1009.65 1010.02 1010.10 1010.24 1011.19 1011.93 1012.78 1013.47 1014.15 1014.66 1015.13 1015.54 1015.94 1016.16 1016.32 1016.47 1016.61 1016.85 1017.18 1017.48 1017.65 1017.93 1018.16 1018.32 1018.43 1018.56 1018.79 1019.01 1019.24 1019.31 1019.29 1019.25 1019.25 1019.27 1019.33 1019.40 1019.48 1019.58 1019.59 1019.54 1019.49
1004.78 1004.41 1004.88 1004.97 1005.60 1006.49 1007.57 1008.56 1009.28 1009.73 1009.87 1010.30 1011.30 1012.20 1012.92 1013.51 1013.88 1014.36 1014.72 1015.27 1015.68 1016.02 1016.17 1016.30 1016.56 1016.79 1017.09 1017.48 1017.61 1017.83 1018.04 1018.11 1018.28 1018.44 1018.62 1018.88 1019.13 1019.28 1019.34 1019.32 1019.34 1019.40 1019.44 1019.47 1019.57 1019.73 1019.78 1019.73 1019.52
1004.10 1004.29 1004.80 1005.46 1006.12 1006.95 1007.73 1008.83 1009.19 1010.03 1010.20 1010.89 1011.54 1012.21 1012.80 1013.21 1013.60 1014.08 1014.61 1015.07 1015.45 1015.74 1015.97 1016.20 1016.44 1016.58 1016.93 1017.25 1017.51 1017.66 1017.78 1017.93 1018.08 1018.12 1018.23 1018.47 1018.92 1019.05 1019.20 1019.29 1019.34 1019.40 1019.47 1019.53 1019.62 1019.71 1019.69 1019.67 1019.65
1004.23 1005.19 1005.20 1006.13 1006.45 1007.32 1007.87 1009.18 1009.34 1009.66 1010.19 1011.08 1011.77 1012.30 1012.80 1013.11 1013.57 1013.74 1014.01 1014.49 1014.86 1015.17 1015.45 1015.78 1016.13 1016.26 1016.67 1016.88 1017.18 1017.37 1017.43 1017.63 1017.74 1017.73 1017.89 1018.17 1018.48 1018.72 1019.00 1019.22 1019.29 1019.37 1019.54 1019.57 1019.65 1019.66 1019.73 1019.66 1019.56
1004.65 1005.02 1006.12 1006.57 1006.67 1007.37 1007.88 1008.75 1009.28 1009.73 1010.26 1011.07 1011.82 1012.30 1012.62 1012.85 1013.13 1013.53 1013.83 1014.15 1014.53 1014.88 1015.25 1015.52 1015.88 1016.16 1016.44 1016.65 1016.81 1017.02 1017.21 1017.37 1017.45 1017.44 1017.61 1017.72 1018.02 1018.31 1018.67 1019.06 1019.28 1019.40 1019.44 1019.49 1019.53 1019.69 1019.68 1019.65 1019.66
1005.42 1005.77 1006.34 1006.80 1006.72 1007.31 1008.23 1009.02 1009.27 1009.85 1010.33 1010.93 1011.41 1011.94 1012.29 1012.71 1012.94 1013.10 1013.39 1013.77 1014.19 1014.52 1014.86 1015.25 1015.56 1015.78 1016.13 1016.42 1016.63 1016.76 1016.91 1017.10 1017.33 1017.50 1017.58 1017.68 1017.89 1018.15 1018.49 1018.82 1019.09 1019.19 1019.35 1019.44 1019.60 1019.69 1019.74 1019.66 1019.56
1005.58 1005.97 1006.34 1006.51 1006.65 1007.19 1008.19 1008.82 1009.35 1009.83 1010.28 1010.58 1010.99 1011.43 1011.75 1012.03 1012.20 1012.58 1012.91 1013.28 1013.67 1014.13 1014.60 1014.92 1015.24 1015.54 1015.84 1016.14 1016.50 1016.69 1017.05 1017.14 1017.30 1017.44 1017.60 1017.75 1017.92 1018.02 1018.29 1018.63 1018.90 1018.99 1019.18 1019.42 1019.55 1019.73 1019.83 1019.79 1019.75
1004.95 1005.55 1005.72 1006.24 1006.77 1007.58 1008.11 1008.86 1009.23 1009.70 1010.18 1010.46 1010.64 1010.84 1011.02 1011.12 1011.20 1011.92 1012.40 1012.85 1013.27 1013.72 1014.30 1014.73 1015.13 1015.32 1015.78 1016.19 1016.63 1017.00 1017.16 1017.26 1017.31 1017.34 1017.46 1017.55 1017.76 1017.92 1018.12 1018.37 1018.64 1018.90 1019.11 1019.24 1019.42 1019.66 1019.80 1019.70 1019.71
1004.88 1005.51 1005.90 1006.49 1006.80 1008.02 1008.80 1009.24 1009.46 1009.72 1009.15 1009.63 1010.07 1010.27 1010.49 1010.74 1011.11 1011.46 1011.92 1012.45 1012.86 1013.19 1013.65 1014.32 1014.66 1014.97 1015.25 1015.67 1016.15 1016.53 1016.86 1017.02 1017.03 1017.05 1017.18 1017.28 1017.44 1017.63 1017.86 1018.16 1018.58 1018.74 1019.06 1019.25 1019.39 1019.46 1019.59 1019.74 1019.67
1004.79 1005.08 1005.80 1006.34 1007.30 1007.91 1008.84 1009.65 1009.73 1009.62 1009.72 1009.74 1009.68 1009.82 1010.10 1010.28 1010.69 1010.94 1011.34 1011.84 1012.31 1012.85 1013.19 1013.59 1013.98 1014.24 1014.77 1015.30 1015.91 1016.47 1016.76 1016.87 1017.01 1017.09 1017.08 1017.00 1017.26 1017.52 1017.76 1018.07 1018.34 1018.58 1018.84 1019.12 1019.24 1019.33 1019.58 1019.65 1019.61
1004.53 1004.34 1005.24 1006.47 1007.33 1008.18 1008.28 1009.26 1009.23 1008.93 1008.97 1008.83 1008.66 1008.89 1009.04 1009.42 1009.84 1010.21 1010.65 1011.17 1011.70 1012.06 1012.55 1012.97 1013.33 1013.70 1014.32 1014.93 1015.52 1015.88 1016.32 1016.74 1016.70 1016.74 1016.77 1016.83 1016.95 1017.27 1017.62 1017.92 1018.26 1018.53 1018.77 1019.02 1019.07 1019.15 1019.43 1019.63 1019.75
1003.44 1003.86 1005.24 1006.43 1007.71 1008.21 1008.93 1009.26 1007.72 1008.16 1008.49 1007.42 1007.12 1007.59 1007.94 1008.27 1008.77 1009.35 1009.85 1010.31 1010.77 1011.39 1011.98 1012.45 1012.85 1013.27 1013.83 1014.49 1014.95 1015.44 1016.01 1016.32 1016.66 1016.81 1016.90 1016.98 1017.16 1017.28 1017.52 1017.78 1018.00 1018.28 1018.55 1018.84 1018.94 1019.04 1019.30 1019.55 1019.71
1002.96 1004.60 1006.29 1007.60 1008.29 1009.12 1008.23 1008.60 1007.46 1007.41 1005.59 1004.66 1005.90 1006.33 1006.63 1007.28 1007.90 1008.52 1009.08 1009.71 1010.31 1010.91 1011.42 1011.87 1012.37 1012.76 1013.30 1013.92 1014.45 1014.88 1015.45 1016.14 1016.67 1016.85 1017.01 1017.13 1017.36 1017.54 1017.58 1017.74 1017.88 1018.04 1018.35 1018.59 1018.70 1018.91 1019.13 1019.31 1019.50
1002.69 1004.70 1006.76 1008.54 1009.22 1009.05 1007.65 1008.16 1005.70 1004.23 1003.52 1003.03 1003.82 1004.32 1005.06 1005.82 1006.84 1007.60 1008.31 1008.97 1009.63 1010.32 1010.71 1011.20 1011.65 1012.13 1012.57 1013.14 1013.66 1014.15 1014.74 1015.51 1015.98 1016.39 1016.52 1016.99 1017.35 1017.42 1017.51 1017.59 1017.87 1018.01 1018.08 1018.26 1018.46 1018.73 1018.92 1019.04 1019.14
1002.96 1004.09 1006.25 1007.70 1008.85 1008.69 1007.83 1006.86 1004.01 1002.24 1002.25 1002.74 1003.11 1003.50 1004.39 1005.04 1005.74 1006.42 1007.12 1007.89 1008.74 1009.39 1009.94 1010.51 1010.97 1011.34 1011.80 1012.40 1013.00 1013.56 1014.24 1015.00 1015.42 1015.86 1016.37 1016.56 1016.86 1016.92 1017.02 1017.32 1017.56 1017.85 1018.02 1018.07 1018.12 1018.38 1018.61 1018.73 1018.84
1002.84 1003.96 1004.76 1006.69 1008.43 1008.51 1007.49 1005.54 1003.31 1002.01 1002.07 1002.16 1002.14 1002.96 1003.24 1003.77 1004.39 1005.30 1006.28 1006.98 1007.71 1008.41 1008.80 1009.37 1010.09 1010.62 1011.15 1011.73 1012.45 1013.12 1013.84 1014.56 1015.05 1015.41 1015.89 1016.20 1016.48 1016.74 1016.95 1017.00 1017.36 1017.58 1017.80 1017.88 1017.96 1018.18 1018.27 1018.46 1018.56
1001.13 1002.76 1004.84 1006.48 1007.86 1008.26 1007.08 1005.50 1003.40 1002.42 1001.61 1001.55 1002.04 1002.02 1002.25 1002.81 1003.78 1004.44 1005.27 1006.02 1006.53 1006.91 1007.65 1008.62 1009.22 1009.68 1010.20 1010.98 1011.61 1012.23 1012.95 1013.63 1014.30 1014.99 1015.59 1015.81 1016.05 1016.44 1016.79 1017.01 1017.26 1017.43 1017.55 1017.57 1017.87 1018.07 1018.07 1018.15 1018.19
1001.62 1002.54 1004.24 1005.33 1006.52 1007.02 1006.56 1004.76 1002.24 1001.49 1001.02 1000.92 1000.85 1000.79 1001.17 1001.97 1002.79 1003.51 1004.07 1004.55 1005.09 1005.73 1006.90 1007.63 1008.36 1008.89 1009.47 1009.97 1010.77 1011.51 1012.37 1013.40 1013.72 1014.28 1014.78 1015.21 1015.58 1015.93 1016.28 1016.57 1016.93 1017.35 1017.59 1017.47 1017.59 1017.75 1017.83 1018.06 1017.99
1000.14 1001.35 1002.76 1004.52 1006.09 1006.25 1005.25 1002.88 1000.76 1000.22 1000.53 1000.52 1000.21 1000.61 1000.99 1001.52 1002.00 1002.60 1003.24 1003.93 1004.67 1005.42 1006.07 1006.52 1007.19 1008.07 1008.34 1009.11 1010.26 1010.98 1011.87 1012.54 1013.37 1013.69 1014.16 1014.76 1014.99 1015.33 1015.77 1016.17 1016.46 1016.80 1017.12 1017.19 1017.38 1017.35 1017.36 1017.65 1017.59
Wind_Speed
5 1 2 3 4 5 2 4 3 3 2 1 2 5 9 6 3 4 1 6 8 6 4 12 15 15 14 14 15 15 15 16 15 14 13 12 12 11 10 9 9 8 7 6 7 7 6 5 4
2 3 3 3 4 4 4 3 6 3 5 9 9 7 5 5 4 8 5 4 6 6 5 7 14 14 16 16 16 17 17 17 14 13 13 11 11 11 10 9 8 7 6 5 5 5 4 3 3
4 1 3 4 4 1 2 3 8 10 8 4 5 5 4 3 6 7 6 8 7 5 6 8 15 16 18 17 17 17 17 15 13 12 12 11 10 10 8 7 7 6 5 4 3 3 3 2 2
1 4 4 4 4 1 2 7 13 9 5 6 9 7 5 8 4 6 11 8 7 6 5 12 16 17 17 16 16 16 16 13 11 10 10 9 9 9 7 6 5 4 3 2 2 3 3 3 3
3 2 3 3 3 2 4 6 7 5 5 6 3 5 7 2 12 13 10 9 8 5 6 9 14 15 15 15 15 13 13 11 10 9 10 9 9 7 6 4 3 2 0 1 2 3 4 5 4
4 2 5 2 2 3 4 6 4 4 7 8 9 7 3 10 12 10 9 8 6 5 5 6 13 14 15 14 13 12 12 11 11 10 10 9 8 7 6 4 3 2 2 3 4 5 6 5 5
4 3 3 3 4 3 3 4 5 3 6 7 10 6 5 8 10 10 8 6 5 5 5 5 5 10 14 13 13 12 12 12 12 10 10 8 7 6 5 5 4 3 4 4 5 6 5 5 5
3 4 3 2 5 4 5 3 6 5 1 8 10 7 10 9 12 10 9 6 5 5 4 4 5 4 5 5 12 12 11 11 10 9 8 7 7 7 6 5 5 5 6 7 7 5 5 4 3
3 3 3 7 9 6 7 4 5 5 10 4 5 6 10 16 14 10 9 5 4 5 4 4 5 5 4 4 6 9 10 9 8 6 7 6 1 2 3 1 5 6 6 6 8 4 6 7 7
4 3 7 8 7 11 12 8 10 5 10 1 7 13 18 17 14 14 12 10 9 7 6 5 5 5 4 3 3 5 4 4 4 4 4 2 2 1 3 4 5 5 5 5 5 3 7 7 3
6 7 6 5 7 16 13 9 6 10 6 6 13 19 20 17 14 12 11 12 12 8 6 6 5 5 5 3 2 2 2 2 3 4 3 1 1 1 1 1 1 1 4 2 4 4 4 4 4
2 8 8 7 8 13 16 9 6 12 6 7 14 20 18 18 14 13 12 10 9 7 7 6 6 6 5 3 3 3 3 2 2 3 4 3 1 2 2 1 1 2 1 1 2 2 3 4 5
6 2 8 9 12 11 14 9 5 8 5 14 18 18 17 15 14 12 12 9 9 9 8 7 6 6 6 5 3 3 3 3 3 3 4 3 3 3 2 2 1 0 0 2 2 2 2 3 5
3 4 9 7 9 5 10 6 9 5 13 15 18 17 16 16 15 11 9 8 9 9 9 7 8 7 5 5 5 4 3 4 4 4 4 6 3 3 3 2 1 1 0 1 1 2 3 3 3
5 7 10 3 4 5 12 2 6 11 16 16 16 14 14 14 12 13 12 11 11 10 10 10 9 7 8 8 5 4 4 4 4 4 5 5 5 5 4 3 2 1 1 1 2 2 2 3 3
3 6 6 4 6 8 6 6 2 15 17 17 15 14 14 14 14 13 11 11 10 8 10 9 9 9 8 7 5 3 4 4 4 4 3 5 5 5 4 3 2 2 1 1 1 1 2 2 2
4 7 4 3 6 7 3 3 8 13 14 15 16 15 14 13 12 12 12 12 11 11 11 10 9 9 7 5 4 5 5 3 2 1 2 4 4 3 3 3 3 2 1 2 1 0 1 2 3
7 7 3 7 10 9 5 3 12 13 13 16 15 14 15 15 16 13 13 13 12 10 9 9 8 7 7 4 3 1 1 1 2 2 2 3 3 3 3 3 3 3 1 2 1 1 1 2 4
7 8 17 1 3 4 5 5 15 15 12 14 14 14 16 16 15 14 13 13 11 9 8 8 8 8 6 2 3 2 2 2 2 3 5 4 3 3 4 3 3 3 3 2 1 0 1 1 1
9 7 10 2 4 5 2 3 10 16 18 17 15 15 14 14 8 10 11 11 10 12 12 9 10 8 8 4 3 3 3 2 2 2 4 4 4 4 4 3 3 3 2 2 1 2 0 1 0
6 10 7 14 6 4 7 3 8 11 9 11 13 11 12 15 13 11 12 13 11 11 12 12 12 12 7 6 4 3 2 2 2 2 2 3 5 5 4 4 3 2 1 1 1 1 2 1 0
7 8 8 9 10 7 6 6 8 12 17 14 17 15 16 15 14 14 14 13 12 13 11 12 12 12 8 9 7 5 4 4 3 3 2 4 5 5 4 4 3 3 2 2 2 2 2 2 1
9 8 11 8 8 6 1 3 7 15 12 22 21 19 19 18 17 16 16 16 14 12 11 11 10 9 8 10 9 7 4 3 2 2 3 4 3 4 4 4 5 4 3 3 3 2 3 2 2
10 8 7 5 5 2 9 9 6 8 25 25 18 20 20 17 17 16 15 14 12 11 11 11 11 11 10 10 10 11 9 6 4 3 3 3 2 2 3 4 4 4 4 4 3 2 3 3 2
7 8 2 3 2 7 3 4 14 11 16 24 23 24 21 19 17 16 17 15 13 13 14 12 13 12 11 12 11 11 10 9 9 6 6 5 3 3 4 5 5 3 4 4 3 3 3 3 3
6 11 8 7 5 5 4 9 13 21 12 9 8 18 15 18 17 20 19 17 15 16 15 14 14 14 12 12 12 10 9 6 5 6 4 4 4 4 5 5 4 5 5 4 3 2 3 3 3
4 4 7 8 2 3 5 9 9 6 7 8 14 14 18 20 20 21 18 18 17 17 18 18 15 14 12 13 10 10 8 8 8 7 6 4 4 4 6 6 6 5 4 4 3 2 3 4 4
10 10 4 3 6 5 5 5 7 6 11 9 8 17 18 19 17 18 18 19 18 20 18 16 16 17 13 13 12 11 11 10 8 7 8 7 6 5 6 5 5 5 5 4 4 3 3 3 3
3 3 5 7 5 8 4 8 10 10 11 12 14 19 18 18 17 18 19 21 21 20 16 16 15 15 14 14 13 12 11 9 9 10 9 8 7 7 7 7 6 6 6 5 4 4 4 5 4
11 11 10 8 6 2 5 9 5 12 6 8 12 14 8 12 16 18 19 19 18 17 17 18 16 15 16 13 12 12 11 12 11 10 10 8 9 6 8 7 6 6 6 5 5 5 4 4 5
Wind_Direction
160 159 348 18 23 74 48 104 92 108 116 50 37 98 112 45 56 155 92 145 128 147 163 150 149 151 153 151 147 144 138 135 136 139 141 144 139 137 140 130 125 120 119 116 108 98 97 94 81
148 174 14 84 69 26 312 94 104 98 120 115 91 108 52 70 62 113 107 138 114 129 134 140 146 154 148 151 148 144 149 146 141 144 146 144 144 139 139 132 120 120 129 119 95 90 86 86 71
193 74 95 94 94 148 221 66 118 127 148 90 109 73 67 74 105 127 125 121 103 111 127 153 148 151 151 149 147 152 154 151 149 145 146 145 138 136 132 128 131 141 136 108 101 91 68 36 28
13 14 13 75 88 206 168 131 130 132 91 52 110 63 75 122 131 136 130 118 121 132 142 146 151 151 149 150 150 149 154 149 144 144 147 145 141 139 134 136 131 127 104 99 58 45 25 6 347
58 83 62 64 24 12 59 118 131 121 88 89 43 87 92 63 111 125 131 134 137 143 140 148 154 150 151 150 147 142 142 142 146 154 157 154 155 146 139 141 130 117 118 314 343 336 345 332 322
51 84 58 31 64 47 46 105 110 57 113 116 94 98 97 131 129 137 135 138 137 132 134 150 152 151 152 151 145 140 150 154 160 163 163 164 162 155 156 166 185 213 265 296 329 330 333 320 310
114 79 138 123 110 44 144 109 111 95 144 129 134 107 114 150 143 135 134 125 128 119 123 133 138 154 156 156 153 155 161 161 168 168 167 167 165 173 191 214 228 243 272 296 319 328 327 318 302
131 92 123 133 161 189 165 99 137 129 77 110 138 164 168 175 145 128 125 123 134 129 130 136 137 144 145 152 165 170 172 167 171 170 163 177 194 198 222 239 274 268 275 288 302 317 322 299 312
173 103 162 191 155 180 158 116 155 104 141 220 163 148 141 147 137 130 133 137 145 158 155 158 152 144 139 148 182 181 184 184 191 192 198 205 174 276 262 301 256 270 284 316 326 331 346 11 19
131 140 215 182 166 162 157 155 153 128 164 104 91 112 133 147 150 153 165 171 177 182 183 184 163 164 154 154 170 165 193 185 193 205 222 187 166 246 237 298 247 258 283 344 354 0 30 22 14
192 215 162 187 166 153 151 161 157 143 226 201 160 150 151 154 160 166 178 183 182 183 176 182 168 159 162 185 188 184 193 186 193 204 211 196 90 309 332 319 21 23 352 36 27 24 27 13 3
201 252 151 165 153 148 160 134 157 167 213 168 162 154 155 162 168 175 180 179 171 181 191 178 163 171 181 183 199 184 190 198 207 207 201 185 189 221 228 228 186 52 25 69 41 26 2 355 342
216 203 160 169 164 153 130 164 157 180 131 132 143 151 165 170 174 183 186 182 174 178 192 193 168 187 192 197 210 201 203 198 206 209 199 189 193 218 270 246 289 347 358 16 14 20 356 336 333
272 139 137 108 101 100 121 134 116 203 138 140 152 164 173 177 183 182 179 181 186 182 191 183 189 194 186 199 208 212 197 212 211 207 209 195 186 205 216 229 235 240 274 329 339 333 330 325 324
144 102 66 74 112 101 109 139 211 151 149 154 165 172 180 190 188 193 187 185 184 191 189 194 192 191 202 201 208 195 219 196 216 215 207 207 194 193 203 205 231 249 270 276 303 308 309 307 315
88 59 114 209 146 170 114 245 154 157 155 166 174 182 189 196 198 199 201 198 190 186 190 194 198 199 205 191 202 199 219 217 232 219 208 208 204 190 190 195 223 232 234 263 282 311 305 311 320
339 149 132 173 199 146 157 212 171 169 164 171 179 187 195 199 205 205 198 198 193 191 195 193 191 198 189 196 190 205 205 202 221 229 193 183 194 193 177 199 208 222 235 264 245 289 274 308 319
180 166 122 198 194 163 163 223 161 178 174 181 188 191 195 201 205 201 200 199 195 192 197 201 193 186 188 194 163 142 51 212 192 205 195 181 212 212 182 188 206 197 203 219 206 237 272 275 301
150 169 185 169 25 38 180 158 178 185 191 197 196 197 200 205 205 201 199 195 189 188 178 188 181 196 175 158 141 146 195 189 215 198 195 188 186 179 165 167 165 171 187 230 222 230 278 311 347
164 152 206 328 140 136 108 314 197 198 202 199 202 208 204 210 186 191 196 192 185 187 188 181 196 191 193 157 148 153 160 184 180 185 199 199 199 184 177 156 169 183 193 239 256 205 111 305 346
165 170 162 219 144 63 119 316 195 215 215 215 225 221 216 210 203 199 193 193 192 191 190 188 194 202 184 163 124 109 95 90 142 192 187 196 179 178 164 176 183 181 185 250 262 202 175 236 288
157 206 159 140 143 200 167 243 224 205 212 213 219 209 214 212 208 203 195 195 195 202 195 193 195 202 182 167 172 163 169 176 210 192 194 181 179 166 167 166 167 193 185 211 232 193 178 173 217
209 149 155 159 169 114 215 78 263 175 219 225 217 207 210 207 204 204 203 200 199 196 190 195 200 192 176 179 184 181 172 185 185 192 195 171 165 175 183 187 177 184 185 215 213 196 190 191 168
141 100 61 62 96 97 218 181 257 189 213 228 212 213 206 201 201 202 199 197 201 191 189 191 193 200 179 178 183 182 183 182 182 183 177 169 167 197 221 204 195 182 181 201 211 227 220 205 193
84 76 4 28 58 209 186 147 232 218 222 221 203 205 202 198 193 192 189 193 190 185 193 193 195 203 185 184 187 186 187 180 187 186 179 162 171 197 208 183 182 181 190 192 197 210 218 209 203
178 149 155 185 180 226 94 208 245 232 230 247 211 213 197 198 194 195 192 190 192 195 201 198 198 204 190 188 192 188 180 184 189 179 179 176 182 195 172 178 180 198 187 197 196 207 226 216 223
188 153 187 111 37 88 202 284 305 232 252 207 212 178 198 196 196 194 190 191 193 197 201 199 198 204 192 191 187 184 178 175 186 183 178 181 180 184 184 184 188 204 210 219 203 211 223 207 226
164 169 100 1 143 219 261 265 232 255 246 212 204 201 203 202 194 193 190 192 197 203 203 200 203 202 194 191 191 185 184 180 179 165 190 184 186 189 186 189 204 213 221 218 208 239 251 246 259
124 154 61 120 133 168 200 258 215 218 220 213 213 210 198 194 191 190 192 196 199 203 199 201 202 197 194 192 187 177 176 181 169 179 187 186 179 186 185 188 201 215 228 227 219 237 251 242 263
192 181 162 182 229 211 176 255 222 215 207 224 225 215 185 184 191 190 193 195 200 203 202 201 200 201 204 195 184 182 172 172 183 190 186 179 186 178 186 194 202 211 223 228 224 236 240 245 250